TimeCDT,TemperatureF,Dew PointF,Humidity,Sea Level PressureIn,VisibilityMPH,Wind Direction,Wind SpeedMPH,Gust SpeedMPH,PrecipitationIn,Events,Conditions,WindDirDegrees,DateUTC
12:52 AM,68.0,64.0,87,29.83,10.0,SE,17.3,-,N/A,,Overcast,140,2013-06-15 05:52:00
1:52 AM,68.0,63.0,84,29.85,10.0,ESE,9.2,-,N/A,,Mostly Cloudy,120,2013-06-15 06:52:00
2:52 AM,68.0,63.0,84,29.86,10.0,East,9.2,-,N/A,,Mostly Cloudy,90,2013-06-15 07:52:00
3:52 AM,66.9,63.0,87,29.85,10.0,SE,9.2,-,N/A,,Mostly Cloudy,130,2013-06-15 08:52:00
4:52 AM,68.0,64.0,87,29.83,10.0,SE,13.8,-,N/A,,Mostly Cloudy,130,2013-06-15 09:52:00
5:52 AM,68.0,64.0,87,29.82,10.0,SSE,11.5,-,N/A,,Mostly Cloudy,150,2013-06-15 10:52:00
6:52 AM,68.0,64.9,90,29.85,10.0,SE,4.6,-,N/A,,Mostly Cloudy,140,2013-06-15 11:52:00
7:52 AM,71.1,66.0,84,29.85,10.0,South,11.5,-,N/A,,Mostly Cloudy,170,2013-06-15 12:52:00
8:52 AM,73.9,66.0,76,29.84,10.0,Variable,3.5,-,N/A,,Mostly Cloudy,0,2013-06-15 13:52:00
9:52 AM,78.1,61.0,56,29.84,10.0,West,17.3,25.3,0.00,Rain,Light Rain,270,2013-06-15 14:52:00
10:52 AM,75.9,68.0,76,29.90,10.0,NNE,17.3,20.7,0.00,,Mostly Cloudy,20,2013-06-15 15:52:00
11:52 AM,75.9,66.9,74,29.89,10.0,North,8.1,-,N/A,,Overcast,10,2013-06-15 16:52:00
12:52 PM,78.1,68.0,71,29.92,10.0,Calm,Calm,-,N/A,,Overcast,0,2013-06-15 17:52:00
1:52 PM,78.1,69.1,74,29.92,10.0,SSW,4.6,-,N/A,,Overcast,210,2013-06-15 18:52:00
2:52 PM,79.0,68.0,69,29.93,10.0,SSW,8.1,-,N/A,,Mostly Cloudy,200,2013-06-15 19:52:00
3:52 PM,81.0,64.0,56,29.88,10.0,South,8.1,-,N/A,,Scattered Clouds,170,2013-06-15 20:52:00
4:52 PM,82.0,62.1,51,29.85,10.0,SSW,9.2,-,N/A,,Scattered Clouds,210,2013-06-15 21:52:00
5:52 PM,82.0,62.1,51,29.85,10.0,SSW,6.9,-,N/A,,Scattered Clouds,210,2013-06-15 22:52:00
6:52 PM,81.0,64.0,56,29.86,10.0,SSW,9.2,-,N/A,,Scattered Clouds,210,2013-06-15 23:52:00
7:52 PM,78.1,64.9,64,29.87,10.0,South,13.8,-,N/A,,Scattered Clouds,170,2013-06-16 00:52:00
8:52 PM,75.9,64.9,69,29.89,10.0,South,9.2,-,N/A,,Scattered Clouds,190,2013-06-16 01:52:00
9:52 PM,73.0,64.9,76,29.91,10.0,SSE,10.4,-,N/A,,Scattered Clouds,160,2013-06-16 02:52:00
10:52 PM,71.1,64.9,81,29.93,10.0,South,4.6,-,N/A,,Scattered Clouds,180,2013-06-16 03:52:00
11:52 PM,70.0,64.9,84,29.93,10.0,South,5.8,-,N/A,,Partly Cloudy,170,2013-06-16 04:52:00